When you browse on this site, cookies collect data to enhance your experience and personalize the content and advertising you see.
Visit our Privacy Policy to learn more. By continuing to use the site, you agree to this use of cookies and data.

Hourly Weather Krasnyy

Today, 4 July, Saturday

Time Temperature Precipitation Wind Pressure Humidity
00:00 +20°C° 0.1 mm 2 mps 748 mmHg 93%
01:00 +20°C° 0 mm 2 mps 748 mmHg 93%
02:00 +19°C° 0 mm 2 mps 748 mmHg 94%
03:00 +19°C° 0 mm 2 mps 748 mmHg 91%
04:00 +19°C° 0 mm 2 mps 748 mmHg 91%
05:00 +20°C° 0 mm 2 mps 748 mmHg 90%
06:00 +20°C° 0 mm 2 mps 748 mmHg 90%
07:00 +23°C° 0 mm 2 mps 748 mmHg 81%
08:00 +25°C° 0 mm 2 mps 748 mmHg 73%
09:00 +27°C° 0 mm 2 mps 748 mmHg 64%
10:00 +29°C° 0.1 mm 3 mps 748 mmHg 60%
11:00 +30°C° 0.1 mm 3 mps 748 mmHg 56%
12:00 +32°C° 0.1 mm 4 mps 747 mmHg 52%
13:00 +32°C° 0.2 mm 4 mps 747 mmHg 52%
14:00 +32°C° 0.2 mm 4 mps 747 mmHg 52%
15:00 +33°C° 0.2 mm 4 mps 747 mmHg 52%
16:00 +30°C° 0.2 mm 3 mps 747 mmHg 58%
17:00 +29°C° 0.2 mm 2 mps 746 mmHg 65%
18:00 +28°C° 0.2 mm 2 mps 746 mmHg 71%
19:00 +26°C° 1.1 mm 2 mps 746 mmHg 78%
20:00 +23°C° 1.1 mm 2 mps 746 mmHg 85%
21:00 +20°C° 1.1 mm 2 mps 746 mmHg 91%
22:00 +20°C° 0.1 mm 2 mps 746 mmHg 92%
23:00 +19°C° 0.1 mm 2 mps 746 mmHg 93%

Tomorrow, 5 July, Sunday

Time Temperature Precipitation Wind Pressure Humidity
00:00 +19°C° 0.1 mm 2 mps 746 mmHg 93%
01:00 +19°C° 0 mm 2 mps 746 mmHg 94%
02:00 +19°C° 0 mm 2 mps 746 mmHg 95%
03:00 +20°C° 0 mm 1 mps 746 mmHg 96%
04:00 +21°C° 0 mm 1 mps 746 mmHg 94%
05:00 +21°C° 0 mm 1 mps 746 mmHg 93%
06:00 +22°C° 0 mm 1 mps 746 mmHg 92%
07:00 +24°C° 0 mm 1 mps 746 mmHg 85%
08:00 +25°C° 0 mm 1 mps 746 mmHg 78%
09:00 +27°C° 0 mm 1 mps 746 mmHg 71%
10:00 +28°C° 0.1 mm 2 mps 746 mmHg 67%
11:00 +29°C° 0.1 mm 2 mps 746 mmHg 64%
12:00 +30°C° 0.1 mm 3 mps 746 mmHg 60%
13:00 +29°C° 0.8 mm 3 mps 746 mmHg 66%
14:00 +28°C° 0.8 mm 3 mps 746 mmHg 72%
15:00 +26°C° 0.8 mm 3 mps 746 mmHg 78%
16:00 +26°C° 0.1 mm 2 mps 746 mmHg 79%
17:00 +26°C° 0.1 mm 1 mps 745 mmHg 79%
18:00 +24°C° 0.1 mm 0 mps 745 mmHg 80%
19:00 +23°C° 0 mm 0 mps 745 mmHg 82%
20:00 +24°C° 0 mm 1 mps 745 mmHg 85%
21:00 +23°C° 0 mm 1 mps 745 mmHg 87%
22:00 +22°C° 0.3 mm 1 mps 745 mmHg 88%
23:00 +22°C° 0.3 mm 1 mps 745 mmHg 89%

Day after tomorrow, 6 July, Monday

Time Temperature Precipitation Wind Pressure Humidity
00:00 +22°C° 0.3 mm 1 mps 745 mmHg 90%
01:00 +21°C° 0 mm 1 mps 745 mmHg 91%
02:00 +19°C° 0 mm 0 mps 745 mmHg 92%
03:00 +19°C° 0 mm 0 mps 745 mmHg 93%
04:00 +19°C° 0 mm 0 mps 745 mmHg 92%
05:00 +20°C° 0 mm 0 mps 745 mmHg 91%
06:00 +21°C° 0 mm 0 mps 745 mmHg 89%
07:00 +23°C° 0 mm 0 mps 745 mmHg 81%
08:00 +26°C° 0 mm 1 mps 746 mmHg 73%
09:00 +28°C° 0 mm 1 mps 746 mmHg 65%
10:00 +29°C° 0 mm 1 mps 746 mmHg 60%
11:00 +30°C° 0 mm 2 mps 746 mmHg 54%
12:00 +31°C° 0 mm 2 mps 746 mmHg 49%
13:00 +32°C° 0 mm 2 mps 746 mmHg 47%
14:00 +32°C° 0 mm 2 mps 746 mmHg 46%
15:00 +32°C° 0 mm 2 mps 745 mmHg 44%
16:00 +32°C° 0 mm 2 mps 745 mmHg 49%
17:00 +31°C° 0 mm 1 mps 745 mmHg 54%
18:00 +31°C° 0 mm 1 mps 745 mmHg 59%
19:00 +29°C° 0 mm 1 mps 745 mmHg 62%
20:00 +27°C° 0 mm 1 mps 745 mmHg 66%
21:00 +24°C° 0 mm 1 mps 745 mmHg 70%
22:00 +24°C° 0 mm 1 mps 745 mmHg 71%
23:00 +23°C° 0 mm 1 mps 745 mmHg 73%

7 July, Tuesday

Time Temperature Precipitation Wind Pressure Humidity
00:00 +23°C° 0 mm 2 mps 745 mmHg 74%
01:00 +21°C° 0 mm 2 mps 745 mmHg 74%
02:00 +21°C° 0 mm 2 mps 745 mmHg 75%
03:00 +20°C° 0 mm 2 mps 745 mmHg 75%
04:00 +21°C° 0 mm 2 mps 745 mmHg 75%
05:00 +21°C° 0 mm 2 mps 746 mmHg 74%
06:00 +23°C° 0 mm 2 mps 746 mmHg 74%
07:00 +25°C° 0 mm 2 mps 746 mmHg 68%
08:00 +26°C° 0 mm 3 mps 746 mmHg 62%
09:00 +28°C° 0 mm 3 mps 746 mmHg 57%
10:00 +30°C° 0 mm 3 mps 746 mmHg 52%
11:00 +31°C° 0 mm 3 mps 745 mmHg 48%
12:00 +34°C° 0 mm 4 mps 745 mmHg 44%
13:00 +34°C° 0 mm 4 mps 745 mmHg 45%
14:00 +34°C° 0 mm 4 mps 745 mmHg 46%
15:00 +34°C° 0 mm 4 mps 745 mmHg 46%
16:00 +34°C° 0 mm 4 mps 745 mmHg 51%
17:00 +33°C° 0 mm 4 mps 745 mmHg 55%
18:00 +33°C° 0 mm 3 mps 745 mmHg 59%
19:00 +30°C° 0 mm 3 mps 745 mmHg 66%
20:00 +28°C° 0 mm 3 mps 745 mmHg 72%
21:00 +26°C° 0 mm 3 mps 745 mmHg 78%
22:00 +26°C° 0 mm 3 mps 745 mmHg 76%
23:00 +25°C° 0 mm 3 mps 745 mmHg 73%

8 July, Wednesday

Time Temperature Precipitation Wind Pressure Humidity
00:00 +25°C° 0 mm 3 mps 745 mmHg 71%
01:00 +24°C° 0 mm 3 mps 745 mmHg 70%
02:00 +24°C° 0 mm 3 mps 745 mmHg 70%
03:00 +22°C° 0 mm 3 mps 745 mmHg 69%
04:00 +22°C° 0 mm 3 mps 745 mmHg 69%
05:00 +24°C° 0 mm 3 mps 745 mmHg 70%
06:00 +24°C° 0 mm 3 mps 745 mmHg 70%
07:00 +26°C° 0 mm 4 mps 745 mmHg 65%
08:00 +28°C° 0 mm 4 mps 744 mmHg 60%
09:00 +30°C° 0 mm 5 mps 744 mmHg 54%
10:00 +32°C° 0 mm 5 mps 744 mmHg 52%
11:00 +33°C° 0 mm 5 mps 744 mmHg 49%
12:00 +34°C° 0 mm 5 mps 744 mmHg 47%
13:00 +34°C° 0 mm 5 mps 744 mmHg 47%
14:00 +34°C° 0 mm 5 mps 743 mmHg 48%
15:00 +34°C° 0 mm 5 mps 743 mmHg 49%
16:00 +33°C° 0 mm 5 mps 743 mmHg 53%
17:00 +32°C° 0 mm 4 mps 742 mmHg 58%
18:00 +32°C° 0 mm 4 mps 742 mmHg 62%
19:00 +30°C° 0 mm 4 mps 742 mmHg 66%
20:00 +28°C° 0 mm 4 mps 742 mmHg 71%
21:00 +27°C° 0 mm 4 mps 741 mmHg 75%
22:00 +27°C° 0 mm 4 mps 741 mmHg 72%
23:00 +26°C° 0 mm 4 mps 740 mmHg 70%

9 July, Thursday

Time Temperature Precipitation Wind Pressure Humidity
00:00 +26°C° 0 mm 4 mps 740 mmHg 67%
01:00 +26°C° 0 mm 4 mps 740 mmHg 66%
02:00 +26°C° 0 mm 5 mps 740 mmHg 65%
03:00 +25°C° 0 mm 5 mps 740 mmHg 63%
04:00 +25°C° 0 mm 4 mps 739 mmHg 66%
05:00 +25°C° 0 mm 4 mps 739 mmHg 68%
06:00 +24°C° 0 mm 3 mps 739 mmHg 70%
07:00 +25°C° 0 mm 3 mps 739 mmHg 70%
08:00 +25°C° 0 mm 3 mps 739 mmHg 70%
09:00 +26°C° 0 mm 2 mps 739 mmHg 70%
10:00 +26°C° 0 mm 2 mps 740 mmHg 68%
11:00 +27°C° 0 mm 2 mps 740 mmHg 65%
12:00 +28°C° 0 mm 2 mps 740 mmHg 63%
13:00 +29°C° 0.3 mm 2 mps 740 mmHg 62%
14:00 +29°C° 0.3 mm 2 mps 740 mmHg 61%
15:00 +29°C° 0.3 mm 2 mps 740 mmHg 61%
16:00 +27°C° 1.4 mm 3 mps 741 mmHg 72%
17:00 +23°C° 1.4 mm 5 mps 741 mmHg 83%
18:00 +20°C° 1.4 mm 6 mps 741 mmHg 94%
19:00 +20°C° 0.5 mm 6 mps 741 mmHg 94%
20:00 +19°C° 0.5 mm 5 mps 742 mmHg 95%
21:00 +19°C° 0.5 mm 4 mps 742 mmHg 95%
22:00 +19°C° 0.1 mm 4 mps 742 mmHg 96%
23:00 +18°C° 0.1 mm 4 mps 742 mmHg 96%
Show more